Location: Newark
(48.6461°N, 4.3644°W)
Time: 04:54:31
(UTC+00:00)

Transit 4A - Pass Details

Date: 31 January 2020
Orbit: 872 x 973 km, 66.8° (Epoch: 16 February)

Event Time Altitude Azimuth Distance (km) Brightness Sun altitude
Rises 05:12:12 0° 196° (SSW) 3,540 - -26.0°
Exits shadow 05:14:39 10° 192° (SSW) 2,629 10.1 -25.6°
Reaches altitude 10° 05:14:46 10° 192° (SSW) 2,586 10.1 -25.5°
Maximum altitude 05:20:33 53° 117° (ESE) 1,092 8.5 -24.6°
Drops below altitude 10° 05:26:15 10° 43° (NE) 2,547 10.7 -23.6°
Sets 05:28:46 0° 38° (NE) 3,482 11.4 -23.2°
